This demonstration page uses our WeatherBlox Daily Observations layout. Learn more.

Left ArrowRight Arrow

30.21309, -93.2044

Hourly Observations for January 5, 2016

Temp ( °F °C ) Dew Point ( °F °C ) Humidity (%) Winds ( mph kmh ) Pressure ( in mb ) Visibility ( mi km ) Precip ( " mm )
12:15 am 00:15 Clear 37 3 33 0.3 83 83 NE 10 17 30.39 1029 10 16 0.00 0.00
12:35 am 00:35 Clear 37 2.7 32 0 83 83 NE 7 11 30.39 1029 10 16 0.00 0.00
12:55 am 00:55 Clear 36 2.4 32 0 84 84 NE 8 13 30.39 1029 10 16 0.00 0.00
1:15 am 01:15 Clear 36 2.3 32 0 85 85 NE 6 9 30.39 1029 10 16 0.00 0.00
1:35 am 01:35 Clear 36 2 32 0 87 87 NE 9 15 30.39 1029 10 16 0.00 0.00
1:55 am 01:55 Clear 35 1.7 32 -0.2 87 87 NE 8 13 30.39 1029 10 16 0.00 0.00
2:15 am 02:15 Clear 35 1.6 32 -0.2 88 88 NE 9 15 30.39 1029 10 16 0.00 0.00
2:35 am 02:35 Clear 34 1.3 31 -0.3 89 89 NE 8 13 30.39 1029 10 16 0.00 0.00
2:55 am 02:55 Clear 34 1.1 31 -0.5 89 89 NE 8 13 30.39 1029 10 16 0.00 0.00
3:15 am 03:15 Clear 34 1 31 -0.5 90 90 NE 7 11 30.39 1029 10 16 0.00 0.00
3:35 am 03:35 Clear 33 0.8 31 -0.6 90 90 NE 9 15 30.39 1029 10 16 0.00 0.00
3:55 am 03:55 Clear 33 0.6 31 -0.7 91 91 NE 8 13 30.39 1029 10 16 0.00 0.00
4:15 am 04:15 Clear 33 0.3 31 -0.8 92 92 NE 8 13 30.39 1029 10 16 0.00 0.00
6:00 am 06:00 Mostly Clear 32 0 30 -1 93 93 NNE 8 13 30.39 1029 10 16 0.00 0.00
6:50 am 06:50 Mostly Clear 32 0 30 -1 93 93 NNE 8 13 30.39 1029 10 16 0.00 0.00
7:50 am 07:50 Mostly Sunny 32 0 28 -2 87 87 NNE 8 13 30.42 1030 10 16 0.00 0.00
8:55 am 08:55 Mostly Sunny 36 2 30 -1 81 81 NE 12 19 30.45 1031 10 16 0.00 0.00
9:55 am 09:55 Mostly Sunny 37 3 30 -1 75 75 NE 12 19 30.45 1031 10 16 0.00 0.00
10:47 am 10:47 Partly Cloudy 43 6 32 0 66 66 ENE 12 19 30.45 1031 10 16 0.00 0.00
11:50 am 11:50 Partly Cloudy 45 7 34 1 66 66 NE 12 19 30.42 1030 10 16 0.00 0.00
12:45 pm 12:45 Partly Cloudy 48 9 34 1 58 58 NE 12 19 30.33 1027 10 16 0.00 0.00
1:50 pm 13:50 Partly Cloudy 50 10 34 1 54 54 N 6 9 30.30 1026 10 16 0.00 0.00
2:50 pm 14:50 Mostly Sunny 48 9 36 2 62 62 N 5 7 30.27 1025 10 16 0.00 0.00
3:50 pm 15:50 Mostly Sunny 52 11 36 2 54 54 Calm 30.27 1025 10 16 0.00 0.00
4:50 pm 16:50 Mostly Sunny 50 10 36 2 58 58 NE 6 9 30.27 1025 10 16 0.00 0.00
5:50 pm 17:50 Mostly Clear 45 7 37 3 76 76 E 3 6 30.33 1027 10 16 0.00 0.00
6:50 pm 18:50 Mostly Clear 45 7 37 3 76 76 ENE 3 6 30.33 1027 10 16 0.00 0.00
7:50 pm 19:50 Mostly Clear 43 6 37 3 81 81 Calm 30.33 1027 10 16 0.00 0.00
8:50 pm 20:50 Mostly Clear 41 5 34 1 76 76 ENE 6 9 30.33 1027 10 16 0.00 0.00
9:15 pm 21:15 Clear 40 4.5 33 0.6 76 76 NE 6 9 30.33 1027 10 16 0.00 0.00
9:35 pm 21:35 Clear 39 4.1 33 0.6 78 78 NE 3 6 30.33 1027 10 16 0.00 0.00
9:50 pm 21:50 Mostly Clear 39 4 34 1 81 81 Calm 30.33 1027 10 16 0.00 0.00
9:55 pm 21:55 Clear 39 3.9 33 0.4 78 78 NE 5 7 30.33 1027 10 16 0.00 0.00
10:15 pm 22:15 Clear 39 3.9 32 0.2 77 77 ENE 3 6 30.33 1027 10 16 0.00 0.00
10:35 pm 22:35 Clear 38 3.6 32 0 78 78 ENE 3 6 30.33 1027 10 16 0.00 0.00
10:55 pm 22:55 Clear 39 3.8 32 0 77 77 ENE 5 7 30.33 1027 10 16 0.00 0.00
11:15 pm 23:15 Clear 39 3.7 32 0 77 77 ENE 6 9 30.30 1026 10 16 0.00 0.00
11:35 pm 23:35 Clear 39 3.8 32 0 77 77 ENE 5 7 30.30 1026 10 16 0.00 0.00
11:55 pm 23:55 Clear 38 3.6 32 0 78 78 NE 3 6 30.30 1026 10 16 0.00 0.00

Powered by AerisWeather